Location: Brunnen
(48.2296°N, 10.9733°E)
Time: 00:57:33
(UTC+00:00)

Daily predictions for brighter satellites

Satellite Brightness Start Highest point End
(mag) Time Altitude Azimuth Time Altitude Azimuth Time Altitude Azimuth
CENTAUR R/B 4.4 02:05:13 25° N 02:05:13 25° N 02:10:57 10° NE
ACS3 Solar Sail 3.4 02:00:26 10° NNE 02:03:45 28° NE 02:03:45 28° NE
USA 234 4.2 02:07:21 10° ESE 02:11:31 41° E 02:11:31 41° E
Cosmos 2360 Rocket 4.1 02:17:23 24° NE 02:17:23 24° NE 02:19:41 10° NE
Cosmos 2322 Rocket 4.2 02:17:43 24° NE 02:17:43 24° NE 02:19:52 10° NNE
SL-16 R/B 4.3 02:24:11 20° NNE 02:24:11 20° NNE 02:25:50 10° NNE
Cosmos 1943 Rocket 4.4 02:24:44 17° NNE 02:26:08 19° NE 02:29:59 10° E
ADEOS Rocket 3.6 02:33:20 10° NNE 02:38:45 62° NE 02:38:45 62° NE
CZ-2C R/B 4.1 02:37:39 10° NNE 02:42:05 30° E 02:42:20 30° E
Cosmos 2219 Rocket 2.9 02:55:06 50° ENE 02:55:06 50° ENE 02:59:26 10° NNE
BREEZE-M DEB (TANK) 4.4 02:53:28 71° W 02:54:25 79° SSW 03:20:00 10° SE
USA 59 Rocket 2.7 03:05:02 11° ENE 03:05:02 11° ENE 03:05:14 10° ENE
COSMOS 2428 4.4 02:59:23 12° SSE 03:03:44 30° ESE 03:08:36 10° NE
Cosmos 1727 Rocket 4.4 03:10:26 10° S 03:16:30 61° E 03:22:37 10° NNE
USA 267 3.1 03:13:01 10° NE 03:19:35 85° NNW 03:20:18 73° WSW
Cosmos 2228 Rocket 3.9 03:26:01 46° NE 03:26:01 46° NE 03:29:23 10° NNE
Cosmos 1269 Rocket 4.3 03:29:01 41° N 03:30:48 67° ENE 03:36:03 10° SSE
H-2A R/B 3.9 03:26:49 10° N 03:28:05 17° N 03:28:05 17° N
USA 238 DEB 4.4 03:33:04 35° NNW 03:33:08 35° NNW 03:39:26 10° NE
USA 238 4.4 03:33:10 35° NNW 03:33:13 35° NNW 03:39:34 10° NE
Cosmos 2278 Rocket 3.2 03:29:49 18° NNW 03:33:42 45° NE 03:39:06 10° SE
Cosmos 2173 Rocket 4.1 03:31:38 10° N 03:37:45 72° E 03:43:47 10° SSE
Cosmos 2333 Rocket 3.4 03:39:31 28° NNW 03:39:31 28° NNW 03:43:08 10° NNE
Cosmos 2237 Rocket 4.4 03:35:35 10° SSE 03:40:05 25° ESE 03:44:35 10° NE
ADEOS II 4.3 03:39:26 10° N 03:39:55 12° NNW 03:39:55 12° NNW
COSMOS 2455 3.4 03:45:06 39° NW 03:45:06 39° NW 03:50:23 10° NNE
Lacrosse 5 rocket 3.1 03:46:58 19° NNE 03:46:58 19° NNE 03:48:18 10° NE
Cosmos 1153 Rocket 4.4 03:40:08 10° NNW 03:46:14 64° W 03:52:23 10° S
Cosmos 2298 Rocket 4.3 03:46:57 51° NW 03:46:57 51° NW 03:51:33 10° NNE
Cosmos 1939 Rocket 3.3 03:43:33 10° NNE 03:47:22 58° E 03:48:49 34° SSE
ACS3 Solar Sail 2.3 03:43:25 10° N 03:47:53 38° NW 03:47:53 38° NW
Meteor 1-24 Rocket 4.5 03:44:13 10° S 03:49:48 53° E 03:55:14 10° NNE
BlueWalker 3 2.5 03:53:51 47° SE 03:53:51 47° SE 03:56:34 10° SE
USA 234 3.4 03:50:35 10° SSE 03:56:58 53° SW 03:58:52 41° W
CENTAUR R/B 4.4 03:52:19 16° NNW 03:57:31 32° NNE 04:05:16 10° E
Cosmos 2123 Rocket 4.3 03:51:52 10° S 03:58:00 67° E 04:04:09 10° NNE
Cosmos 2360 Rocket 3.2 03:59:09 30° NW 03:59:09 30° NW 04:03:26 10° NNE
USA 276 4.4 04:00:15 17° SE 04:00:15 17° SE 04:01:03 10° SE
Cosmos 2322 Rocket 3.3 03:59:32 27° NNW 03:59:32 27° NNW 04:03:35 10° NNE
Helios 1A Rocket 3.7 03:56:55 10° SE 04:00:07 39° ENE 04:02:41 14° N
Meteor 2-5 Rocket 4.4 03:54:50 10° S 04:00:38 60° E 04:06:24 10° NNE
Gbstr 26 Del rocket 3.6 03:59:16 41° SW 04:00:54 67° SSE 04:06:45 10° ENE
SL-16 R/B 3.8 04:06:02 18° NNW 04:06:02 18° NNW 04:09:07 10° N
Cosmos 44 Rocket 3.3 04:05:02 45° NW 04:06:33 71° WSW 04:11:40 10° SSE
Cosmos 2016 Rocket 4.2 04:02:36 10° N 04:09:02 75° E 04:15:22 10° SSE
Cosmos 1943 Rocket 2.2 04:06:17 16° NNW 04:10:46 82° ENE 04:16:16 10° SSE
Meteor 2-14 Rocket 4.4 04:05:50 10° SSW 04:11:51 60° WNW 04:17:53 10° N
Okean 1-7 3.8 04:13:10 34° NNW 04:13:10 34° NNW 04:15:58 10° N
H-2A R/B 4.0 04:08:39 10° N 04:11:15 37° NNW 04:11:15 37° NNW
ARGOS 3.5 04:09:44 10° N 04:14:50 42° WNW 04:16:17 35° WSW
NOSS 2-1 (C) 2.6 04:14:58 81° WNW 04:15:00 82° NW 04:18:03 10° NE
PAYLOAD A 4.2 04:10:27 10° N 04:15:43 54° WNW 04:20:29 12° SW
Meteor 2-21 Rocket 4.4 04:09:39 10° S 04:15:46 85° E 04:21:54 10° N
Cosmos 1908 Rocket 3.4 04:12:12 10° NNW 04:16:39 79° W 04:21:03 10° S
Cosmos 1140 Rocket 3.4 04:15:56 26° NW 04:18:44 58° WSW 04:23:43 10° S
NOSS 2-1 (D) 2.6 04:19:05 68° NW 04:19:05 68° NW 04:22:04 10° NE
CZ-2C R/B 2.8 04:15:32 10° N 04:20:12 40° WNW 04:21:32 34° WSW
Timation 2 Rocket 4.0 04:14:48 14° NNW 04:20:44 71° WSW 04:27:05 10° SSE
Cosmos 1300 Rocket 3.8 04:17:05 10° N 04:21:26 67° E 04:25:42 10° SSE
ADEOS Rocket 4.1 04:19:41 10° N 04:24:53 27° WNW 04:25:40 26° WNW
Cosmos 2061 Rocket 4.3 04:22:50 10° N 04:29:03 70° ENE 04:35:13 10° SSE
NOSS 3-1 (C) 3.0 04:27:24 27° WSW 04:30:01 63° NW 04:35:49 10° NE
Iridium 4 Rocket 2.9 04:27:29 10° N 04:31:53 82° W 04:36:02 10° S
Cosmos 2100 Rocket 4.2 04:26:27 10° NNW 04:32:16 46° W 04:38:04 10° SSW
SJ 16-02 3.1 04:28:59 10° N 04:32:49 30° ENE 04:36:37 10° ESE
Orbus 7S? 4.3 04:29:32 10° SW 04:35:44 53° SE 04:38:56 10° ENE
Cosmos 2219 Rocket 3.2 04:36:50 24° WNW 04:38:12 27° NW 04:43:00 10° NNE
IRS-1D 3.3 04:35:23 10° NNE 04:40:22 75° WNW 04:45:16 10° SSW
NOSS 0 Rocket 3.8 04:38:02 10° SSW 04:44:11 81° WNW 04:50:23 10° NNE
COSMOS 2428 2.9 04:42:11 10° SW 04:47:43 51° NW 04:53:16 10° NNE
Cosmos 1869 4.2 04:44:27 10° N 04:47:50 44° ENE 04:51:11 10° SSE
USA 59 Rocket 0.1 04:50:47 27° WNW 04:51:25 30° NW 04:54:05 10° NNE
Cosmos 371 Rocket 4.4 04:46:56 10° NNW 04:51:34 44° ENE 04:56:11 10° SE
Cosmos 2322 4.1 04:50:01 10° WSW 04:55:16 40° NW 05:00:38 10° NNE
FengYun 1-2 T 4.5 04:51:30 10° N 04:56:48 47° WNW 05:02:06 10° SW
Cosmos 1954 Rocket 4.4 04:51:39 10° NNW 04:56:51 64° ENE 05:01:58 10° SE
COSMO-SKYMED 1 2.5 04:54:16 10° S 04:58:19 57° W 05:02:24 10° NNW
SKYMED 2 3.9 04:55:34 10° S 04:59:40 42° W 05:03:49 10° NNW
Cosmos 407 Rocket 3.6 04:55:43 10° NNW 05:00:38 49° WSW 05:05:31 10° S
USA 267 3.7 04:56:05 10° ENE 05:02:15 46° NNW 05:07:39 14° W
Cosmos 1484 Rocket 2.7 04:59:26 10° NNE 05:03:00 74° ESE 05:06:32 10° S
Cosmos 1725 Rocket 4.3 04:58:00 10° NNW 05:03:55 44° W 05:09:49 10° SSW
Cosmos 1980 3.6 05:01:44 10° SW 05:07:22 73° WNW 05:13:04 10° NNE
Cosmos 1656 Rocket 4.1 05:08:15 10° NNW 05:13:55 67° ENE 05:19:34 10° SE
NOSS 3-1 (A) 3.0 05:09:24 10° SW 05:14:08 68° NW 05:19:59 10° NE
Cosmos 2233 Rocket 4.2 05:09:07 10° NNW 05:15:13 52° W 05:21:14 10° SSW
Cosmos 1400 Rocket 4.4 05:11:47 10° N 05:15:16 34° ENE 05:18:41 10° SE
Cosmos 2278 Rocket 2.9 05:12:36 10° NW 05:17:38 34° WSW 05:22:39 10° S
Cosmos 1703 Rocket 4.5 05:14:12 10° SW 05:17:51 26° WNW 05:21:33 10° NNW
Cosmos 2251 Rocket 3.6 05:14:15 10° NNW 05:19:32 61° WSW 05:24:48 10° S
Cosmos 304 Rocket 3.9 05:15:10 10° NNW 05:19:57 77° ENE 05:24:43 10° SSE
Cosmos 1939 Rocket 4.4 05:18:42 10° NNW 05:20:53 15° WNW 05:23:04 10° W
NOSS 2-1 (E) 4.0 05:18:52 12° W 05:21:17 24° NW 05:23:51 10° NNE
CZ-3 R/B 4.0 05:18:59 10° SW 05:22:34 13° SSW 05:25:12 10° SSE
Lacrosse 5 rocket 2.7 05:20:44 10° NW 05:23:13 18° N 05:25:40 10° NE
Cosmos 2237 Rocket 2.2 05:18:06 10° SW 05:23:42 60° WNW 05:29:19 10° NNE
Cosmos 2333 Rocket 4.2 05:23:14 10° NW 05:24:13 10° NNW 05:25:14 10° NNW
IGS 5A 3.4 05:21:57 10° NNE 05:25:59 86° E 05:30:00 10° SSW
BlueWalker 3 3.8 05:28:02 10° W 05:29:59 14° SW 05:31:57 10° SSW
Cosmos 2151 Rocket 4.2 05:27:42 10° N 05:32:11 63° ENE 05:36:37 10° SSE
Helios 1A Rocket 4.2 05:31:02 10° SW 05:33:01 15° W 05:35:00 10° WNW
Cosmos 2242 Rocket 3.5 05:29:47 10° SSW 05:34:08 70° W 05:38:33 10° N
ATLAS 3B R/B 4.4 05:27:30 10° S 05:34:29 44° ESE 05:41:49 10° NE
Cosmos 2369 Rocket 2.9 05:30:09 10° NNW 05:35:44 55° ENE 05:41:20 10° SE
Cosmos 1624 Rocket 4.0 05:34:43 10° SSW 05:39:54 87° WNW 05:45:07 10° NNE
Cosmos 968 Rocket 4.1 05:37:02 10° NNW 05:42:13 59° ENE 05:47:23 10° SE
